Location: Dammartin
(48.9032°N, 1.6195°E)
Time: 17:48:11
(UTC+00:00)

BlueWalker 3 - Pass Details

Date: 20 April 2024
Orbit: 482 x 494 km, 53.2° (Epoch: 22 May)

Event Time Altitude Azimuth Distance (km) Brightness Sun altitude
Rises 21:22:29 0° 266° (W) 2,574 6.0 -20.8°
Reaches altitude 10° 21:24:43 10° 272° (W) 1,695 5.1 -21.0°
Maximum altitude 21:28:27 49° 348° (NNW) 649 2.8 -21.4°
Enters shadow 21:30:35 23° 54° (NE) 1,113 3.6 -21.6°
